|
Cosmos 1869 Rocket - Orbit
|
Unspecified;
11:15:54
| Home | Info | Passes |
|
View from above orbital plane
|
View from above satellite
|
Ground track
|
The orbit data is extracted from the following two-line orbital elements,
1 18215U 87062B 13169.14352005 .00000197 00000-0 21773-4 0 611
2 18215 082.5115 211.2444 0019589 250.6022 143.1041 14.82192727399613
| Epoch (UTC): | 18 June 2013 03:26:40 |
| Eccentricity: | 0.0019589 |
| inclination: | 82.5115° |
| perigee height: | 609 km |
| apogee height: | 636 km |
| right ascension of ascending node: | 211.2444° |
| argument of perigee: | 250.6022° |
| revolutions per day: | 14.82192727 |
| mean anomaly at epoch: | 143.1041° |
| orbit number at epoch: | 39961 |
The dashed part of the orbit path shows where the satellite is in the earth's shadow,
|
|